Weather History for KBJI - October, 2013

Change the Weather History Date:

Friday, October 11, 2013

  Actual Average Record
Temperature  
Mean Temperature 62 °F -  
Max Temperature 69 °F 54 °F 78 °F (1976)
Min Temperature 55 °F 35 °F 21 °F (1957)
Degree Days  
Heating Degree Days 3    
Growing Degree Days 12 (Base 50)    
Moisture  
Dew Point 52 °F    
Average Humidity 75    
Maximum Humidity 93    
Minimum Humidity 53    
Precipitation  
Precipitation 0.26 in - - ()
Sea Level Pressure  
Sea Level Pressure 29.66 in    
Wind  
Wind Speed 14 mph (SE)    
Max Wind Speed 25 mph    
Max Gust Speed 32 mph    
Visibility 10 miles    
Events Rain , Thunderstorm    
Averages and records for this station are not official NWS values.
T = Trace of Precipitation, MM = Missing Value Source: NWS Daily Summary

Daily Weather History Graph

Daily Weather History Graph

Search for Another Location

Airport or City:

Trip Planner

Search our weather history database for the weather conditions in past years. The results will help you decide how hot, cold, wet, or windy it might be!

Date:

Astronomy

Oct. 11, 2013 Rise Set
Actual Time 7:33 AM CDT 6:38 PM CDT
Civil Twilight 7:02 AM CDT 7:09 PM CDT
Nautical Twilight 6:26 AM CDT 7:45 PM CDT
Astronomical Twilight 5:50 AM CDT 8:20 PM CDT
Moon 2:28 PM CDT (10/11) No Moon Set
Length of Visible Light 12h 07m
Length of Day
11h 05m
Waxing Crescent, 47% of the Moon is Illuminated
Oct 11
Waxing Crescent
Oct 11
First Quarter
Oct 18
Full
Oct 26
Last Quarter
Nov 3
New

Hourly Weather History & Observations

Time (CDT) Temp. Dew Point Humidity Pressure Visibility Wind Dir Wind Speed Gust Speed Precip Events Conditions
12:13 AM 61.3 °F 50.4 °F 67% 29.81 in 10.0 mi SE 9.2 mph - N/A   Clear
12:32 AM 61.2 °F 50.0 °F 67% 29.81 in 10.0 mi SE 11.5 mph - N/A   Clear
12:52 AM 60.4 °F 50.0 °F 68% 29.81 in 10.0 mi SE 10.4 mph - N/A   Clear
1:13 AM 61.2 °F 49.8 °F 66% 29.81 in 10.0 mi SE 11.5 mph 17.3 mph N/A   Scattered Clouds
1:32 AM 61.0 °F 49.8 °F 67% 29.81 in 10.0 mi SE 16.1 mph - N/A   Scattered Clouds
1:52 AM 61.2 °F 49.6 °F 66% 29.81 in 10.0 mi SE 12.7 mph - N/A   Clear
2:12 AM 60.8 °F 49.6 °F 67% 29.82 in 10.0 mi SE 11.5 mph - N/A   Scattered Clouds
2:32 AM 60.4 °F 49.8 °F 68% 29.82 in 10.0 mi SE 10.4 mph - N/A   Mostly Cloudy
2:53 AM 59.9 °F 50.0 °F 70% 29.81 in 10.0 mi SE 12.7 mph - N/A   Mostly Cloudy
3:12 AM 59.7 °F 50.0 °F 70% 29.81 in 10.0 mi SE 15.0 mph - N/A   Scattered Clouds
3:32 AM 59.0 °F 50.0 °F 72% 29.80 in 10.0 mi SE 11.5 mph - N/A   Scattered Clouds
3:52 AM 58.5 °F 50.2 °F 74% 29.80 in 10.0 mi SE 11.5 mph - N/A   Mostly Cloudy
4:13 AM 58.6 °F 50.0 °F 73% 29.80 in 10.0 mi SE 11.5 mph - N/A   Mostly Cloudy
4:32 AM 58.6 °F 50.0 °F 73% 29.80 in 10.0 mi SE 11.5 mph - N/A   Mostly Cloudy
4:52 AM 58.3 °F 50.0 °F 74% 29.80 in 10.0 mi SE 10.4 mph - N/A   Scattered Clouds
5:12 AM 58.1 °F 50.0 °F 74% 29.81 in 10.0 mi SE 9.2 mph - N/A   Clear
5:32 AM 58.1 °F 50.0 °F 74% 29.80 in 10.0 mi SE 10.4 mph - N/A   Clear
5:52 AM 58.5 °F 49.8 °F 73% 29.79 in 10.0 mi SE 11.5 mph 17.3 mph N/A   Clear
6:13 AM 58.3 °F 50.0 °F 74% 29.79 in 10.0 mi SE 12.7 mph - N/A   Clear
6:32 AM 57.9 °F 50.0 °F 75% 29.78 in 10.0 mi SE 12.7 mph - N/A   Clear
6:52 AM 57.4 °F 50.0 °F 76% 29.78 in 10.0 mi SE 13.8 mph 20.7 mph N/A   Clear
7:12 AM 56.7 °F 50.0 °F 78% 29.78 in 10.0 mi SE 15.0 mph 18.4 mph N/A   Clear
7:32 AM 56.5 °F 50.0 °F 79% 29.78 in 10.0 mi SE 11.5 mph 19.6 mph N/A   Clear
7:53 AM 55.9 °F 50.0 °F 80% 29.77 in 10.0 mi ESE 16.1 mph - N/A   Clear
8:12 AM 55.9 °F 50.0 °F 80% 29.76 in 10.0 mi SE 16.1 mph 20.7 mph N/A   Clear
8:32 AM 56.1 °F 50.0 °F 80% 29.75 in 10.0 mi SE 11.5 mph - N/A   Clear
8:52 AM 56.5 °F 50.0 °F 79% 29.75 in 10.0 mi ESE 16.1 mph - N/A   Clear
9:12 AM 56.7 °F 50.0 °F 78% 29.73 in 10.0 mi ESE 15.0 mph 20.7 mph N/A   Clear
9:32 AM 57.6 °F 50.2 °F 76% 29.73 in 10.0 mi ESE 16.1 mph 21.9 mph N/A   Clear
9:52 AM 58.5 °F 50.9 °F 76% 29.73 in 10.0 mi ESE 16.1 mph 21.9 mph N/A   Clear
10:13 AM 59.2 °F 50.9 °F 74% 29.71 in 10.0 mi ESE 13.8 mph 25.3 mph N/A   Clear
10:32 AM 59.5 °F 50.9 °F 73% 29.71 in 10.0 mi SE 16.1 mph 23.0 mph N/A   Clear
10:52 AM 59.9 °F 50.9 °F 72% 29.71 in 10.0 mi SE 21.9 mph 26.5 mph N/A   Clear
11:13 AM 61.7 °F 51.1 °F 68% 29.69 in 10.0 mi ESE 20.7 mph 27.6 mph N/A   Clear
11:32 AM 62.6 °F 51.4 °F 67% 29.68 in 10.0 mi SE 18.4 mph 26.5 mph N/A   Clear
11:52 AM 63.3 °F 51.6 °F 66% 29.66 in 10.0 mi SE 15.0 mph 26.5 mph N/A   Clear
12:12 PM 64.8 °F 52.0 °F 63% 29.65 in 10.0 mi SE 23.0 mph 32.2 mph N/A   Clear
12:32 PM 66.4 °F 52.3 °F 61% 29.66 in 10.0 mi SE 21.9 mph 29.9 mph N/A   Clear
12:53 PM 66.6 °F 52.3 °F 60% 29.64 in 10.0 mi SE 25.3 mph 32.2 mph N/A   Clear
1:13 PM 67.8 °F 52.5 °F 58% 29.63 in 10.0 mi SE 23.0 mph 31.1 mph N/A   Clear
1:32 PM 68.5 °F 52.7 °F 57% 29.61 in 10.0 mi SE 20.7 mph 29.9 mph N/A Thunderstorm Clear
1:52 PM 69.6 °F 52.0 °F 53% 29.60 in 10.0 mi SE 18.4 mph 27.6 mph N/A   Clear
2:13 PM 68.9 °F 51.4 °F 54% 29.61 in 10.0 mi SE 17.3 mph 26.5 mph N/A   Clear
2:32 PM 67.8 °F 50.0 °F 53% 29.63 in 10.0 mi SSE 20.7 mph 31.1 mph N/A   Clear
2:52 PM 66.6 °F 50.9 °F 57% 29.63 in 10.0 mi SSE 20.7 mph 32.2 mph N/A   Scattered Clouds
3:12 PM 65.7 °F 51.6 °F 60% 29.64 in 10.0 mi SSE 16.1 mph 21.9 mph N/A Thunderstorm Thunderstorm
3:32 PM 62.8 °F 54.3 °F 74% 29.66 in 10.0 mi South 11.5 mph 17.3 mph N/A Rain Rain
3:53 PM 59.7 °F 55.8 °F 87% 29.64 in 4.0 mi ESE 5.8 mph - 0.05 in Rain Heavy Rain
4:12 PM 59.7 °F 54.5 °F 83% 29.57 in 10.0 mi ESE 18.4 mph 28.8 mph 0.03 in Rain Light Rain
4:32 PM 59.2 °F 54.5 °F 84% 29.57 in 10.0 mi ESE 12.7 mph - 0.03 in Rain Light Rain
4:52 PM 60.1 °F 54.9 °F 83% 29.58 in 10.0 mi ESE 19.6 mph 23.0 mph 0.03 in Thunderstorm Overcast
5:13 PM 59.7 °F 54.5 °F 83% 29.58 in 10.0 mi ESE 20.7 mph 26.5 mph N/A Rain Rain
5:32 PM 59.4 °F 54.0 °F 82% 29.57 in 10.0 mi ESE 19.6 mph 24.2 mph N/A   Overcast
5:52 PM 59.0 °F 54.0 °F 83% 29.57 in 10.0 mi ESE 15.0 mph 21.9 mph N/A Rain Rain
6:13 PM 58.5 °F 54.3 °F 86% 29.56 in 10.0 mi ESE 13.8 mph - N/A   Overcast
6:32 PM 59.2 °F 54.1 °F 83% 29.54 in 10.0 mi ESE 16.1 mph 21.9 mph N/A   Overcast
6:52 PM 59.2 °F 54.1 °F 83% 29.52 in 10.0 mi ESE 15.0 mph 23.0 mph N/A   Overcast
7:13 PM 59.9 °F 54.1 °F 81% 29.51 in 10.0 mi ESE 17.3 mph 28.8 mph N/A   Overcast
7:32 PM 59.9 °F 54.5 °F 82% 29.50 in 10.0 mi ESE 16.1 mph 26.5 mph N/A Rain Light Rain
7:52 PM 60.1 °F 54.1 °F 81% 29.49 in 10.0 mi ESE 16.1 mph 25.3 mph N/A   Overcast
8:13 PM 60.8 °F 54.0 °F 78% 29.48 in 10.0 mi ESE 19.6 mph 26.5 mph N/A   Overcast
8:32 PM 59.5 °F 54.9 °F 84% 29.47 in 7.0 mi SE 16.1 mph 27.6 mph 0.01 in Rain Rain
8:52 PM 58.3 °F 54.0 °F 86% 29.49 in 7.0 mi SSW 16.1 mph 24.2 mph 0.03 in Rain , Thunderstorm Light Thunderstorms and Rain
9:12 PM 56.3 °F 53.6 °F 91% 29.48 in 4.0 mi SSE 12.7 mph 26.5 mph 0.02 in Rain , Thunderstorm Rain
9:32 PM 57.0 °F 54.1 °F 90% 29.46 in 10.0 mi SSE 15.0 mph 21.9 mph 0.05 in   Overcast
9:53 PM 57.2 °F 55.2 °F 93% 29.46 in 10.0 mi SE 11.5 mph - 0.07 in   Mostly Cloudy
10:12 PM 58.6 °F 55.8 °F 90% 29.46 in 10.0 mi SSE 16.1 mph 20.7 mph 0.02 in   Overcast
10:32 PM 58.3 °F 55.4 °F 90% 29.46 in 10.0 mi SSE 17.3 mph 20.7 mph 0.05 in   Scattered Clouds
10:52 PM 58.3 °F 55.4 °F 90% 29.46 in 10.0 mi SSE 15.0 mph 23.0 mph 0.08 in   Clear
11:12 PM 59.2 °F 54.1 °F 83% 29.46 in 10.0 mi South 20.7 mph 27.6 mph N/A   Mostly Cloudy
11:32 PM 57.2 °F 50.7 °F 79% 29.47 in 10.0 mi South 20.7 mph 26.5 mph N/A   Scattered Clouds
11:53 PM 55.2 °F 49.6 °F 81% 29.48 in 10.0 mi South 12.7 mph 23.0 mph N/A   Scattered Clouds